TimeMST,TemperatureF,Dew PointF,Humidity,Sea Level PressureIn,VisibilityMPH,Wind Direction,Wind SpeedMPH,Gust SpeedMPH,PrecipitationIn,Events,Conditions,WindDirDegrees,DateUTC
12:53 AM,1.9,-2.0,83,30.65,10.0,SSE,8.1,-,N/A,,Clear,160,2012-12-21 07:53:00
1:53 AM,1.0,-2.0,87,30.64,10.0,SSE,6.9,-,N/A,,Clear,160,2012-12-21 08:53:00
2:53 AM,-0.9,-4.0,87,30.64,10.0,SSE,5.8,-,N/A,,Clear,150,2012-12-21 09:53:00
3:53 AM,-0.0,-4.0,83,30.63,10.0,SSE,5.8,-,N/A,,Clear,160,2012-12-21 10:53:00
4:53 AM,-0.9,-4.0,87,30.64,10.0,SSE,6.9,-,N/A,,Clear,150,2012-12-21 11:53:00
5:53 AM,-0.0,-2.9,88,30.67,10.0,SSE,8.1,-,N/A,,Clear,160,2012-12-21 12:53:00
6:53 AM,-0.9,-5.1,83,30.68,10.0,South,6.9,-,N/A,,Clear,170,2012-12-21 13:53:00
7:53 AM,1.0,-2.9,83,30.66,10.0,SSE,5.8,-,N/A,,Clear,160,2012-12-21 14:53:00
8:53 AM,6.1,1.0,80,30.63,10.0,SSE,4.6,-,N/A,,Clear,160,2012-12-21 15:53:00
9:53 AM,15.1,6.1,68,30.58,10.0,Calm,Calm,-,N/A,,Clear,0,2012-12-21 16:53:00
10:53 AM,19.9,8.1,60,30.54,10.0,Calm,Calm,-,N/A,,Clear,0,2012-12-21 17:53:00
11:53 AM,21.0,10.0,63,30.49,10.0,NNW,3.5,-,N/A,,Clear,330,2012-12-21 18:53:00
12:53 PM,21.9,9.0,58,30.47,10.0,NNW,6.9,-,N/A,,Clear,340,2012-12-21 19:53:00
1:53 PM,25.0,10.9,55,30.43,10.0,NNW,4.6,-,N/A,,Clear,340,2012-12-21 20:53:00
2:53 PM,25.0,10.0,53,30.42,10.0,North,4.6,-,N/A,,Clear,350,2012-12-21 21:53:00
3:53 PM,25.0,10.0,53,30.41,10.0,NE,3.5,-,N/A,,Clear,40,2012-12-21 22:53:00
4:53 PM,23.0,9.0,55,30.44,10.0,Calm,Calm,-,N/A,,Clear,0,2012-12-21 23:53:00
5:53 PM,12.9,8.1,81,30.50,10.0,ESE,3.5,-,N/A,,Clear,110,2012-12-22 00:53:00
6:53 PM,9.0,5.0,84,30.52,10.0,SSE,4.6,-,N/A,,Clear,160,2012-12-22 01:53:00
7:53 PM,7.0,3.0,84,30.53,10.0,SE,6.9,-,N/A,,Clear,140,2012-12-22 02:53:00
8:53 PM,7.0,3.9,87,30.50,9.0,SSE,6.9,-,N/A,,Clear,150,2012-12-22 03:53:00
9:53 PM,5.0,1.9,87,30.48,9.0,SSE,5.8,-,N/A,,Clear,160,2012-12-22 04:53:00
10:53 PM,6.1,3.0,87,30.46,9.0,SSE,6.9,-,N/A,,Clear,150,2012-12-22 05:53:00
11:53 PM,5.0,1.9,87,30.45,10.0,SE,6.9,-,N/A,,Clear,140,2012-12-22 06:53:00